Location: Moonridge Observatory
(39.2268°N, 77.7914°W)
Time: 23:58:47
(UTC-04:00)

Amateur Radio Satellites - All Passes

Search period start: 27 May 2016 23:28
Search period end: 28 May 2016 23:28
Location: Moonridge Observatory, 39.2268°N, 77.7914°W

Satellite Date Start Highest point End Downlink Frequencies (MHz)
Time Altitude Azimuth
HUMSAT D 27 May 23:29:31 23:32:56 26° 264° (W) 23:36:22 437.325/437.525
VELOX 1 27 May 23:32:38 23:36:46 38° 71° (ENE) 23:40:54 145.980
PHONESAT 2.4 27 May 23:34:06 23:37:14 84° 171° (S) 23:40:24 2401.200-2431.200
AIST 2 27 May 23:35:57 23:40:03 62° 242° (WSW) 23:44:07 435.215
ANTELSAT 27 May 23:38:23 23:42:42 86° 98° (E) 23:47:05 437.575/2403.000
DUCHIFAT 1 27 May 23:39:26 23:41:14 12° 92° (E) 23:43:01 145.980
Cosmos 2499 27 May 23:50:08 23:57:08 52° 283° (WNW) 00:04:40 435.465 / 435.565
ISS 27 May 23:51:16 23:53:08 14° 342° (NNW) 23:55:00 145.825
SPROUT 27 May 23:52:16 23:55:41 24° 69° (ENE) 23:59:07 437.525
GONETS M04 28 May 00:02:53 00:10:22 30° 290° (WNW) 00:17:53
SO-50 28 May 00:06:10 00:10:18 28° 112° (ESE) 00:14:27 436.795
AISAT 28 May 00:08:21 00:12:49 81° 256° (WSW) 00:17:20 437.250
UKube-1 28 May 00:15:22 00:19:41 79° 77° (ENE) 00:24:03 .
POPSAT HIP 1 28 May 00:16:02 00:19:56 37° 98° (E) 00:23:49 437.405
QB50P1 28 May 00:16:23 00:20:19 38° 98° (E) 00:24:14 145.935-145.965
TISAT 1 28 May 00:17:31 00:19:21 13° 64° (ENE) 00:21:11 437.305
QB50P2 28 May 00:18:42 00:22:44 43° 99° (E) 00:26:43 145.880/145.840
POLYITAN 1 28 May 00:21:08 00:25:10 44° 99° (E) 00:29:11 437.675
50 SAT 28 May 00:31:17 00:34:34 32° 262° (W) 00:37:53 437.505
RS-15 28 May 00:31:50 00:41:49 28° 28° (NNE) 00:51:51 29.354- 29.394
UNISAT 6 28 May 00:34:32 00:37:55 23° 292° (WNW) 00:41:21 437.425
NANOSAT C BR1 28 May 00:34:34 00:38:42 61° 100° (E) 00:42:50 145.865
DANDE 28 May 00:39:45 00:47:51 53° 269° (W) 00:55:04 436.750
TIGRISAT 28 May 00:42:12 00:45:22 20° 292° (WNW) 00:48:33 435.000
CUSAT 1 28 May 00:46:13 00:51:45 23° 279° (W) 00:56:39 437.405
ESTCUBE 1 28 May 00:48:43 00:52:12 22° 266° (W) 00:55:42 437.505/2401.250
CUBEBUG 1 28 May 01:02:18 01:05:43 22° 266° (W) 01:09:09 437.445
DX 1 28 May 01:03:27 01:07:02 24° 264° (W) 01:10:38 434.975-435.025
SWISSCUBE 28 May 01:06:57 01:07:27 10° 60° (ENE) 01:07:58 437.505
VELOX 1 28 May 01:10:13 01:13:21 19° 266° (W) 01:16:29 145.980
PHONESAT 2.4 28 May 01:10:57 01:14:05 67° 4° (N) 01:17:12 2401.200-2431.200
ITUPSAT 1 28 May 01:12:51 01:13:44 10° 60° (ENE) 01:14:37 437.325
DUCHIFAT 1 28 May 01:13:10 01:17:11 49° 287° (WNW) 01:21:12 145.980
SPROUT 28 May 01:27:49 01:31:30 28° 264° (W) 01:35:12 437.525
BUGSAT 1 28 May 01:30:19 01:34:20 68° 285° (WNW) 01:38:18 437.445
JAS-2 28 May 01:31:53 01:38:55 44° 96° (E) 01:45:10 435.910
BEESAT 28 May 01:33:40 01:36:52 18° 64° (ENE) 01:40:03 436.000
SO-50 28 May 01:46:07 01:50:39 36° 309° (NW) 01:55:11 436.795
TISAT 1 28 May 01:50:22 01:54:31 55° 259° (W) 01:58:41 437.305
POPSAT HIP 1 28 May 01:52:39 01:55:26 17° 293° (WNW) 01:58:12 437.405
QB50P1 28 May 01:53:05 01:55:48 17° 294° (WNW) 01:58:31 145.935-145.965
QB50P2 28 May 01:55:42 01:58:09 15° 295° (WNW) 02:00:37 145.880/145.840
POLYITAN 1 28 May 01:58:12 02:00:36 15° 295° (WNW) 02:02:59 437.675
Oscar 19 28 May 02:10:23 02:15:14 39° 98° (E) 02:20:00 437.125/150
NANOSAT C BR1 28 May 02:12:35 02:13:54 11° 297° (WNW) 02:15:14 145.865
YUBILEINY 28 May 02:26:48 02:33:17 22° 66° (ENE) 02:39:45 435.215
Gurwin Techsat 1B 28 May 02:35:32 02:40:07 29° 96° (E) 02:44:40 435.225
SWISSCUBE 28 May 02:39:45 02:44:30 87° 261° (W) 02:49:17 437.505
RS-15 28 May 02:44:32 02:56:55 74° 56° (NE) 03:09:10 29.354- 29.394
ITUPSAT 1 28 May 02:46:04 02:50:50 85° 258° (WSW) 02:55:38 437.325
PHONESAT 2.4 28 May 02:47:45 02:50:49 55° 199° (SSW) 02:53:53 2401.200-2431.200
ITAMSAT 1 28 May 02:53:53 02:57:00 16° 92° (E) 03:00:07 435.822/435.867
ISS 28 May 03:05:47 03:08:13 19° 23° (NNE) 03:10:38 145.825
BEESAT 28 May 03:09:42 03:14:16 47° 260° (W) 03:18:52 436.000
JAS-2 28 May 03:17:07 03:23:40 35° 296° (WNW) 03:29:38 435.910
Cosmos 2504 28 May 03:18:22 03:21:36 12° 60° (ENE) 03:24:52 435.465 / 435.565
Cosmos 2491 28 May 03:21:22 03:28:05 25° 81° (E) 03:34:47 435.465 / 435.565
Oscar 19 28 May 03:50:14 03:54:17 24° 294° (WNW) 03:58:20 437.125/150
KKS-1 28 May 03:59:29 04:03:56 72° 75° (ENE) 04:08:24 437.445
Gurwin Techsat 1B 28 May 04:15:18 04:20:03 34° 292° (WNW) 04:24:47 435.225
MOZHAYETS 4 28 May 04:17:26 04:21:59 80° 75° (ENE) 04:26:34
YUBILEINY 28 May 04:22:14 04:30:58 76° 267° (W) 04:39:45 435.215
PHONESAT 2.4 28 May 04:25:45 04:27:08 12° 214° (SW) 04:28:30 2401.200-2431.200
ITAMSAT 1 28 May 04:31:41 04:36:49 59° 288° (WNW) 04:41:57 435.822/435.867
STARS 28 May 04:34:12 04:38:37 88° 77° (ENE) 04:43:03 437.465
AO-7 28 May 04:37:18 04:45:26 52° 102° (ESE) 04:53:32 29.400- 29.500
ISS 28 May 04:41:42 04:44:56 68° 221° (SW) 04:48:10 145.825
RS-15 28 May 04:58:11 05:08:21 32° 257° (WSW) 05:18:29 29.354- 29.394
Cosmos 2504 28 May 05:08:08 05:16:34 67° 80° (E) 05:25:22 435.465 / 435.565
Cosmos 2491 28 May 05:15:20 05:24:07 67° 280° (W) 05:32:55 435.465 / 435.565
HORYU 2 28 May 05:18:39 05:22:24 26° 96° (E) 05:26:08 437.375
AO-85 28 May 05:31:56 05:36:25 27° 111° (ESE) 05:40:53 145.980
CUBESAT XI-V 28 May 05:43:45 05:48:23 73° 76° (ENE) 05:53:06 437.345
CUTE-I 28 May 06:12:00 06:14:12 12° 90° (E) 06:16:23 437.470
YUBILEINY 28 May 06:22:44 06:26:11 13° 285° (WNW) 06:29:39 435.215
AO-7 28 May 06:30:33 06:37:53 36° 300° (WNW) 06:45:13 29.400- 29.500
HORYU 2 28 May 06:55:10 06:58:52 27° 292° (WNW) 07:02:35 437.375
NOAA 15 28 May 06:56:52 07:02:03 51° 100° (E) 07:07:10 137.62
Cosmos 2504 28 May 07:02:43 07:09:16 26° 277° (W) 07:16:02 435.465 / 435.565
Cubesat XI-IV 28 May 07:03:30 07:08:32 40° 98° (E) 07:13:33 437.490
NOAA 18 28 May 07:05:42 07:11:02 50° 101° (E) 07:16:21 137.9125
AO-85 28 May 07:11:30 07:16:43 45° 307° (NW) 07:21:51 145.980
STRAND 1 28 May 07:13:42 07:18:36 51° 72° (ENE) 07:23:33 437.568
Cosmos 2491 28 May 07:19:41 07:22:50 12° 302° (WNW) 07:26:00 435.465 / 435.565
BRITE-PL 28 May 07:23:11 07:28:17 77° 102° (ESE) 07:32:56 437.365/2234.400
CUBESAT XI-V 28 May 07:25:36 07:26:16 10° 271° (W) 07:26:55 437.345
GOMX 1 28 May 07:45:19 07:49:55 58° 100° (E) 07:54:11 467.674
LilacSat-2 28 May 07:46:26 07:50:10 60° 285° (WNW) 07:53:54 437.200
CUTE-I 28 May 07:49:25 07:54:47 76° 286° (WNW) 08:00:08 437.470
AIST 1 28 May 08:03:24 08:06:51 22° 74° (ENE) 08:10:15
GONETS M04 28 May 08:16:51 08:23:51 26° 68° (ENE) 08:30:47
JUGNU 28 May 08:17:48 08:19:23 11° 180° (S) 08:21:00 437.505
DOVE 4 28 May 08:31:23 08:35:46 85° 103° (ESE) 08:39:57 437.250
NOAA 15 28 May 08:37:38 08:41:25 20° 296° (WNW) 08:45:11 137.62
SO-50 28 May 08:38:38 08:42:12 21° 45° (NE) 08:45:41 436.795
PRISM 28 May 08:43:57 08:48:05 79° 76° (ENE) 08:52:16 437.425
Cubesat XI-IV 28 May 08:44:03 08:48:22 25° 294° (WNW) 08:52:41 437.490
CANX-2 28 May 08:46:05 08:50:05 37° 98° (E) 08:54:03 2200.000
NOAA 18 28 May 08:47:15 08:51:18 22° 297° (WNW) 08:55:22 137.9125
SEEDS 28 May 08:47:59 08:51:29 24° 95° (E) 08:54:56 437.485
STRAND 1 28 May 08:54:42 08:58:04 18° 268° (W) 09:01:26 437.568
O/OREOS (USA 219) 28 May 08:54:46 08:57:48 18° 100° (E) 09:00:48 437.305
CINEMA 3 28 May 08:57:44 09:01:44 44° 99° (E) 09:05:42 145.822/145.860
AUBIESAT-1 28 May 09:03:47 09:06:52 36° 104° (ESE) 09:09:58 437.475
BRITE-PL 28 May 09:03:59 09:05:55 12° 300° (WNW) 09:07:49 437.365/2234.400
M-CUBED/EXP-1 PRIME 28 May 09:10:55 09:14:09 60° 107° (ESE) 09:17:23 437.505
HO-68 28 May 09:11:45 09:18:52 62° 103° (ESE) 09:25:58 435.675
CUTE 1.7 + AOD 2 28 May 09:13:01 09:17:18 67° 101° (ESE) 09:21:34 437.475
PCSat 28 May 09:18:27 09:23:04 29° 108° (ESE) 09:27:42 145.827
Oscar 11 28 May 09:21:14 09:23:10 13° 91° (E) 09:25:07 145.826/435.025
GOMX 1 28 May 09:25:11 09:27:23 13° 298° (WNW) 09:29:33 467.674
COMPASS 1 28 May 09:32:28 09:36:38 56° 101° (E) 09:40:46 437.405
AAUSAT CUBESAT 2 28 May 09:34:27 09:38:31 46° 99° (E) 09:42:33 437.432
ZACube-1 28 May 09:35:53 09:38:34 16° 93° (E) 09:41:16 437.345
AIST 1 28 May 09:40:45 09:44:24 27° 271° (W) 09:48:02
Cosmos 2499 28 May 09:40:57 09:49:25 55° 78° (ENE) 09:58:03 435.465 / 435.565
CUBEBUG 2 28 May 09:43:02 09:47:02 44° 99° (E) 09:51:04 437.445
UNISAT 6 28 May 09:55:48 09:59:15 23° 69° (ENE) 10:02:40 437.425
DELFI C3 28 May 10:00:26 10:02:53 16° 93° (E) 10:05:20 145.870
TIGRISAT 28 May 10:02:56 10:06:32 26° 70° (ENE) 10:10:07 435.000
UWE-3 28 May 10:10:09 10:14:19 63° 101° (E) 10:18:32 435.000/436.395/437.385
SRMSAT 28 May 10:12:33 10:14:00 11° 179° (S) 10:15:28 437.500
FUNcube-1 28 May 10:12:34 10:16:32 40° 99° (E) 10:20:33 145.935
GONETS M04 28 May 10:12:43 10:21:18 65° 268° (W) 10:29:50
SO-50 28 May 10:18:27 10:22:58 50° 244° (WSW) 10:27:20 436.795
CANX-2 28 May 10:22:42 10:25:39 18° 293° (WNW) 10:28:36 2200.000
SEEDS 28 May 10:23:32 10:27:07 27° 290° (WNW) 10:30:40 437.485
O/OREOS (USA 219) 28 May 10:32:31 10:36:50 41° 296° (WNW) 10:41:09 437.305
ANTELSAT 28 May 10:35:59 10:40:19 65° 74° (ENE) 10:44:34 437.575/2403.000
CINEMA 3 28 May 10:36:18 10:38:30 14° 295° (WNW) 10:40:41 145.822/145.860
AUBIESAT-1 28 May 10:40:02 10:41:05 11° 299° (WNW) 10:42:08 437.475
CUTE 1.7 + AOD 2 28 May 10:51:29 10:52:33 11° 297° (WNW) 10:53:37 437.475
Oscar 11 28 May 10:55:22 10:59:36 52° 286° (WNW) 11:03:49 145.826/435.025
HO-68 28 May 11:00:26 11:06:02 26° 300° (WNW) 11:11:39 435.675
PCSat 28 May 11:01:16 11:06:17 38° 305° (NW) 11:11:21 145.827
POPSAT HIP 1 28 May 11:07:44 11:11:12 25° 69° (ENE) 11:14:40 437.405
QB50P1 28 May 11:08:01 11:11:32 26° 69° (ENE) 11:15:02 145.935-145.965
COMPASS 1 28 May 11:09:57 11:11:41 12° 296° (WNW) 11:13:26 437.405
QB50P2 28 May 11:10:25 11:14:03 29° 70° (ENE) 11:17:43 145.880/145.840
ZACube-1 28 May 11:11:05 11:14:59 38° 288° (WNW) 11:18:56 437.345
AAUSAT CUBESAT 2 28 May 11:11:18 11:13:35 14° 294° (WNW) 11:15:53 437.432
POLYITAN 1 28 May 11:12:51 11:16:31 29° 70° (ENE) 11:20:11 437.675
HUMSAT D 28 May 11:13:00 11:17:03 49° 100° (E) 11:21:08 437.325/437.525
BEESAT 2 28 May 11:17:28 11:20:16 19° 111° (ESE) 11:23:06 435.950
CUBEBUG 2 28 May 11:20:58 11:23:19 15° 294° (WNW) 11:25:39 437.445
NANOSAT C BR1 28 May 11:25:34 11:29:28 38° 72° (ENE) 11:33:23 145.865
UNISAT 6 28 May 11:32:02 11:35:50 29° 263° (W) 11:39:35 437.425
DELFI C3 28 May 11:34:09 11:37:53 37° 288° (WNW) 11:41:35 145.870
Cosmos 2499 28 May 11:34:43 11:42:05 33° 275° (W) 11:49:39 435.465 / 435.565
TIGRISAT 28 May 11:39:33 11:43:10 25° 264° (W) 11:46:45 435.000
JAS-2 28 May 11:42:56 11:48:15 21° 58° (ENE) 11:53:45 435.910
UWE-3 28 May 11:49:12 11:50:16 11° 296° (WNW) 11:51:19 435.000/436.395/437.385
BEESAT 3 28 May 11:49:28 11:53:23 82° 122° (ESE) 11:57:21 437.485
FUNcube-1 28 May 11:49:52 11:52:28 16° 293° (WNW) 11:55:06 145.935
AISAT 28 May 12:00:29 12:03:46 20° 94° (E) 12:07:01 437.250
50 SAT 28 May 12:01:51 12:04:42 20° 95° (E) 12:07:32 437.505
CUSAT 1 28 May 12:01:56 12:08:07 66° 94° (E) 12:15:43 437.405
DUCHIFAT 1 28 May 12:03:26 12:07:39 81° 258° (WSW) 12:11:53 145.980
DANDE 28 May 12:04:17 12:09:02 30° 85° (E) 12:14:57 436.750
UKube-1 28 May 12:05:09 12:07:25 14° 92° (E) 12:09:41 .
BUGSAT 1 28 May 12:18:25 12:22:36 69° 76° (ENE) 12:26:46 437.445
ESTCUBE 1 28 May 12:40:55 12:45:30 85° 107° (ESE) 12:50:01 437.505/2401.250
POPSAT HIP 1 28 May 12:43:22 12:46:54 25° 264° (W) 12:50:26 437.405
QB50P1 28 May 12:43:44 12:47:13 25° 264° (W) 12:50:44 145.935-145.965
QB50P2 28 May 12:46:32 12:49:51 22° 265° (W) 12:53:11 145.880/145.840
POLYITAN 1 28 May 12:49:03 12:52:19 22° 265° (W) 12:55:36 437.675
HUMSAT D 28 May 12:50:12 12:52:15 14° 295° (WNW) 12:54:19 437.325/437.525
CUBEBUG 1 28 May 12:50:43 12:55:06 75° 103° (ESE) 12:59:25 437.445
DX 1 28 May 12:51:41 12:56:01 60° 101° (E) 13:00:17 434.975-435.025
BEESAT 2 28 May 12:54:12 12:57:52 35° 307° (NW) 13:01:32 435.950
VELOX 1 28 May 12:59:44 13:04:11 90° 70° (ENE) 13:08:35 145.980
NANOSAT C BR1 28 May 13:02:38 13:05:20 16° 267° (W) 13:08:03 145.865
SPROUT 28 May 13:14:08 13:18:17 51° 100° (E) 13:22:25 437.525
JAS-2 28 May 13:24:55 13:32:14 83° 256° (WSW) 13:40:09 435.910
Oscar 19 28 May 13:25:58 13:31:00 52° 72° (ENE) 13:36:03 437.125/150
BEESAT 3 28 May 13:30:23 13:31:38 11° 318° (NW) 13:32:52 437.485
AIST 2 28 May 13:32:29 13:36:12 34° 114° (ESE) 13:39:57 435.215
50 SAT 28 May 13:35:20 13:38:22 24° 290° (WNW) 13:41:23 437.505
Cosmos 2491 28 May 13:35:39 13:36:48 10° 56° (NE) 13:37:58 435.465 / 435.565
TISAT 1 28 May 13:35:51 13:39:12 23° 95° (E) 13:42:30 437.305
AISAT 28 May 13:36:20 13:40:18 34° 290° (WNW) 13:44:15 437.250
UKube-1 28 May 13:39:34 13:43:43 47° 288° (WNW) 13:47:51 .
CUSAT 1 28 May 13:45:51 13:51:02 24° 296° (WNW) 13:56:56 437.405
DANDE 28 May 13:46:23 13:51:35 39° 290° (WNW) 13:58:14 436.750
AO-7 28 May 13:48:02 13:51:51 14° 47° (NE) 13:55:40 29.400- 29.500
Gurwin Techsat 1B 28 May 13:55:26 14:00:23 42° 70° (ENE) 14:05:21 435.225
AO-85 28 May 14:05:20 14:08:29 17° 42° (NE) 14:11:27 145.980
ITAMSAT 1 28 May 14:10:37 14:14:35 23° 65° (ENE) 14:18:34 435.822/435.867
DX 1 28 May 14:29:51 14:31:40 12° 297° (WNW) 14:33:29 434.975-435.025
CUBEBUG 1 28 May 14:30:28 14:30:43 10° 298° (WNW) 14:30:59 437.445
SWISSCUBE 28 May 14:41:29 14:45:29 26° 96° (E) 14:49:27 437.505
ITUPSAT 1 28 May 14:48:05 14:52:08 26° 96° (E) 14:56:10 437.325
SPROUT 28 May 14:51:41 14:53:47 14° 296° (WNW) 14:55:54 437.525
Oscar 19 28 May 15:07:08 15:10:36 18° 268° (W) 15:14:04 437.125/150
BEESAT 28 May 15:10:38 15:15:15 46° 100° (E) 15:19:51 436.000
TISAT 1 28 May 15:11:17 15:14:48 27° 291° (WNW) 15:18:17 437.305
AIST 2 28 May 15:11:27 15:14:45 23° 311° (NW) 15:18:04 435.215
JAS-2 28 May 15:14:30 15:18:19 15° 275° (W) 15:22:18 435.910
Cosmos 2491 28 May 15:27:06 15:35:46 60° 79° (ENE) 15:44:18 435.465 / 435.565
YUBILEINY 28 May 15:27:19 15:34:00 26° 82° (E) 15:40:42 435.215
AO-7 28 May 15:34:52 15:43:00 64° 67° (ENE) 15:51:12 29.400- 29.500
Gurwin Techsat 1B 28 May 15:36:18 15:40:28 23° 266° (W) 15:44:39 435.225
AO-85 28 May 15:44:54 15:49:26 60° 243° (WSW) 15:53:34 145.980
ITAMSAT 1 28 May 15:48:53 15:53:46 42° 261° (W) 15:58:41 435.822/435.867
KKS-1 28 May 15:52:59 15:55:28 15° 92° (E) 15:57:55 437.445
MOZHAYETS 4 28 May 16:14:16 16:17:42 20° 94° (E) 16:21:08
HORYU 2 28 May 16:16:00 16:19:24 22° 67° (ENE) 16:22:49 437.375
SWISSCUBE 28 May 16:19:02 16:23:16 32° 291° (WNW) 16:27:29 437.505
ITUPSAT 1 28 May 16:25:43 16:29:56 31° 291° (WNW) 16:34:08 437.325
STARS 28 May 16:25:49 16:28:39 17° 93° (E) 16:31:28 437.465
BEESAT 28 May 16:49:24 16:52:40 19° 295° (WNW) 16:55:55 436.000
NOAA 18 28 May 16:54:49 16:56:38 12° 58° (ENE) 16:58:27 137.9125
BRITE-PL 28 May 16:57:44 16:59:22 11° 59° (ENE) 17:00:59 437.365/2234.400
RS-15 28 May 17:06:20 17:17:00 52° 110° (ESE) 17:28:13 29.354- 29.394
YUBILEINY 28 May 17:21:27 17:30:02 64° 280° (W) 17:38:42 435.215
Cosmos 2491 28 May 17:24:57 17:31:55 28° 278° (W) 17:38:52 435.465 / 435.565
KKS-1 28 May 17:28:01 17:32:17 47° 287° (WNW) 17:36:30 437.445
AO-7 28 May 17:29:34 17:36:15 27° 265° (W) 17:43:00 29.400- 29.500
CUTE-I 28 May 17:32:10 17:35:57 20° 64° (ENE) 17:39:44 437.470
CUBESAT XI-V 28 May 17:42:16 17:45:43 20° 93° (E) 17:49:08 437.345
Cosmos 2504 28 May 17:45:46 17:52:43 54° 91° (E) 18:00:02 435.465 / 435.565
MOZHAYETS 4 28 May 17:50:41 17:54:57 37° 289° (WNW) 17:59:13
HORYU 2 28 May 17:51:50 17:55:47 32° 263° (W) 17:59:45 437.375
STARS 28 May 18:01:05 18:05:10 40° 289° (WNW) 18:09:14 437.465
PCSat 28 May 18:07:09 18:11:18 22° 48° (NE) 18:15:24 145.827
NOAA 15 28 May 18:15:44 18:21:01 74° 74° (ENE) 18:26:20 137.62
Cubesat XI-IV 28 May 18:24:23 18:29:35 60° 73° (ENE) 18:34:50 437.490
LilacSat-2 28 May 18:27:05 18:30:47 52° 75° (ENE) 18:34:29 437.200
NOAA 18 28 May 18:30:59 18:36:27 86° 75° (ENE) 18:41:56 137.9125
BRITE-PL 28 May 18:31:14 18:36:52 78° 76° (ENE) 18:42:35 437.365/2234.400
GOMX 1 28 May 18:50:52 18:56:15 59° 74° (ENE) 19:01:32 467.674
O/OREOS (USA 219) 28 May 19:04:28 19:08:22 28° 61° (ENE) 19:12:14 437.305
CUTE-I 28 May 19:10:26 19:15:35 51° 260° (W) 19:20:46 437.470
RS-15 28 May 19:18:33 19:29:30 50° 313° (NW) 19:41:07 29.354- 29.394
CUBESAT XI-V 28 May 19:18:51 19:23:13 39° 289° (WNW) 19:27:34 437.345
STRAND 1 28 May 19:26:09 19:29:45 19° 93° (E) 19:33:20 437.568
YUBILEINY 28 May 19:26:26 19:28:48 11° 303° (WNW) 19:31:10 435.215
DOVE 4 28 May 19:34:29 19:39:43 76° 76° (ENE) 19:44:45 437.250
BEESAT 2 28 May 19:37:15 19:38:23 11° 42° (NE) 19:39:31 435.950
CANX-2 28 May 19:38:15 19:41:34 23° 69° (ENE) 19:44:55 2200.000
HO-68 28 May 19:39:14 19:45:48 42° 65° (ENE) 19:52:24 435.675
SEEDS 28 May 19:39:43 19:42:09 15° 66° (ENE) 19:44:36 437.485
Cosmos 2504 28 May 19:40:38 19:46:31 26° 291° (WNW) 19:52:41 435.465 / 435.565
AUBIESAT-1 28 May 19:48:28 19:52:23 45° 69° (ENE) 19:56:04 437.475
PCSat 28 May 19:49:45 19:55:05 58° 246° (WSW) 20:00:22 145.827
M-CUBED/EXP-1 PRIME 28 May 19:55:53 20:00:05 71° 71° (ENE) 20:03:58 437.505
CINEMA 3 28 May 19:57:52 20:02:15 39° 72° (ENE) 20:06:29 145.822/145.860
NOAA 15 28 May 19:59:01 20:01:18 13° 270° (W) 20:03:36 137.62
CUTE 1.7 + AOD 2 28 May 20:04:35 20:08:30 39° 72° (ENE) 20:12:27 437.475
Cubesat XI-IV 28 May 20:06:51 20:10:03 16° 268° (W) 20:13:15 437.490
BEESAT 3 28 May 20:07:56 20:11:32 32° 52° (NE) 20:15:07 437.485
BRITE-PL 28 May 20:13:02 20:15:52 14° 272° (W) 20:18:43 437.365/2234.400
NOAA 18 28 May 20:16:26 20:17:44 11° 270° (W) 20:19:03 137.9125
COMPASS 1 28 May 20:22:16 20:25:57 32° 71° (ENE) 20:29:40 437.405
AAUSAT CUBESAT 2 28 May 20:23:54 20:27:22 26° 70° (ENE) 20:30:52 437.432
PRISM 28 May 20:28:51 20:30:16 11° 91° (E) 20:31:42 437.425
GOMX 1 28 May 20:31:02 20:34:36 18° 269° (W) 20:38:09 467.674
ZACube-1 28 May 20:32:11 20:33:46 12° 64° (ENE) 20:35:20 437.345
AIST 1 28 May 20:32:45 20:35:07 14° 85° (E) 20:37:30
CUBEBUG 2 28 May 20:40:09 20:44:04 33° 71° (ENE) 20:47:53 437.445
O/OREOS (USA 219) 28 May 20:43:59 20:47:38 25° 258° (WSW) 20:51:16 437.305
PHONESAT 2.4 28 May 20:57:20 20:58:48 13° 146° (SE) 21:00:16 2401.200-2431.200
STRAND 1 28 May 21:04:13 21:09:10 49° 289° (WNW) 21:14:06 437.568
UWE-3 28 May 21:06:02 21:10:07 43° 73° (ENE) 21:14:07 435.000/436.395/437.385
FUNcube-1 28 May 21:07:22 21:10:56 27° 70° (ENE) 21:14:29 145.935
BEESAT 2 28 May 21:12:48 21:16:48 86° 241° (WSW) 21:20:46 435.950
SEEDS 28 May 21:13:31 21:17:28 42° 261° (W) 21:21:29 437.485
CANX-2 28 May 21:13:43 21:17:18 27° 264° (W) 21:20:54 2200.000
DOVE 4 28 May 21:15:52 21:17:48 12° 270° (W) 21:19:44 437.250
GONETS M04 28 May 21:16:57 21:24:17 31° 84° (E) 21:31:35
ISS 28 May 21:20:11 21:23:25 65° 139° (SE) 21:26:40 145.825
AUBIESAT-1 28 May 21:25:02 21:27:00 13° 261° (W) 21:28:54 437.475
HO-68 28 May 21:27:03 21:33:31 36° 263° (W) 21:40:01 435.675
CINEMA 3 28 May 21:36:04 21:39:28 19° 266° (W) 21:42:48 145.822/145.860
RS-15 28 May 21:37:35 21:46:02 21° 345° (NNW) 21:54:45 29.354- 29.394
CUTE 1.7 + AOD 2 28 May 21:41:57 21:44:30 16° 268° (W) 21:47:04 437.475
BEESAT 3 28 May 21:46:06 21:49:01 20° 249° (WSW) 21:51:54 437.485
Oscar 11 28 May 21:48:34 21:52:51 80° 259° (W) 21:57:10 145.826/435.025
AIST 2 28 May 21:55:04 21:58:04 19° 47° (NE) 22:01:02 435.215
COMPASS 1 28 May 21:58:36 22:01:34 19° 266° (W) 22:04:33 437.405
AAUSAT CUBESAT 2 28 May 21:59:32 22:02:48 23° 265° (W) 22:06:07 437.432
PRISM 28 May 22:01:49 22:05:54 53° 287° (WNW) 22:09:56 437.425
HUMSAT D 28 May 22:03:31 22:07:03 29° 70° (ENE) 22:10:34 437.325/437.525
ZACube-1 28 May 22:05:24 22:09:34 57° 259° (W) 22:13:42 437.345
AIST 1 28 May 22:08:05 22:12:17 44° 281° (WNW) 22:16:31
Cosmos 2499 28 May 22:17:00 22:23:39 41° 87° (E) 22:30:44 435.465 / 435.565
CUBEBUG 2 28 May 22:17:31 22:20:43 20° 266° (W) 22:23:53 437.445
DELFI C3 28 May 22:18:25 22:22:22 77° 259° (W) 22:26:22 145.870
ANTELSAT 28 May 22:30:00 22:32:19 14° 92° (E) 22:34:39 437.575/2403.000
PHONESAT 2.4 28 May 22:32:02 22:35:07 56° 161° (SSE) 22:38:12 2401.200-2431.200
CUSAT 1 28 May 22:38:53 22:46:17 48° 73° (ENE) 22:52:21 437.405
DANDE 28 May 22:43:31 22:50:50 32° 68° (ENE) 22:57:28 436.750
FUNcube-1 28 May 22:43:51 22:47:09 22° 265° (W) 22:50:27 145.935
UWE-3 28 May 22:44:23 22:46:46 14° 267° (W) 22:49:08 435.000/436.395/437.385
AISAT 28 May 22:57:20 23:00:15 17° 65° (ENE) 23:03:11 437.250
ISS 28 May 22:57:40 23:00:08 19° 337° (NNW) 23:02:35 145.825
UKube-1 28 May 22:59:57 23:01:21 11° 62° (ENE) 23:02:46 .
